{"data":{"norad_id":61008,"intl_designator":"2024-158U","name":"STARLINK-32340","alt_names":[],"object_type":"PAYLOAD","status":"ACTIVE","operator":null,"country":"US","launch_date":"2024-09-05","launch_site_code":"AFETR","launch_vehicle":null,"mission":null,"orbit_class":"UNKNOWN","rcs_meters":null,"size_class":null,"mass_kg":null,"dimensions":null,"purposes":["comms"],"wikipedia_slug":null,"has_3d_model":false,"image_url":null,"decayed_at":null,"tle_current":{"epoch":"2026-09-21T22:29:31.676352Z","epoch_age_seconds":67963,"freshness":"FRESH","line1":"1 61008U 24158U   26264.93717218  .00000256  00000+0  18718-4 0  9994","line2":"2 61008  53.1598 230.6483 0001368  92.4332 267.6827 15.34386626115677","mean_motion":15.34386626,"eccentricity":0.0001368,"inclination_deg":53.1598,"raan_deg":230.6483,"arg_perigee_deg":92.4332,"mean_anomaly_deg":267.6827,"bstar":1.8718e-5,"rev_number":11567,"period_min":93.848576075897,"perigee_km":461.80715845953,"apogee_km":463.67882322502,"semimajor_km":6840.8799908423,"source":"CELESTRAK","updated_at":"2026-09-22T09:00:49.329434Z"}}}